Regional Weather Roundup
Issued by NWS

Home | Current Version | Previous Version | Graphics & Text | Print | Product List | Glossary On
Versions: 1 2 3 4 5 6 7 8 9 10 11 12 13 14 15 16 17 18 19 20 21 22 23 24 25 26 27 28 29 30 31 32 33 34 35 36 37 38 39 40 41 42 43 44 45 46 47 48 49 50
000
ASUS43 KBIS 262220
RWRND

NORTH DAKOTA REGIONAL WEATHER ROUNDUP
NATIONAL WEATHER SERVICE BISMARCK ND
400 PM CST FRI DEC 26 2014

NOTE: "FAIR" INDICATES FEW OR NO CLOUDS BELOW 12,000 FEET WITH NO
SIGNIFICANT WEATHER AND/OR OBSTRUCTIONS TO VISIBILITY.


NDZ001>003-009>011-017-262300-
NORTHWEST NORTH DAKOTA

CITY           SKY/WX    TMP DP  RH WIND       PRES   REMARKS
WILLISTON      CLOUDY    20  13  74 S5        30.15R WCI  13
MINOT          CLEAR     12   5  73 N6        30.17R WCI   3
MINOT AFB      CLEAR     10   6  82 N6        30.17R WCI   0
$$

NDZ018>021-031>035-040>046-262300-
SOUTHWEST NORTH DAKOTA

CITY           SKY/WX    TMP DP  RH WIND       PRES   REMARKS
BISMARCK       MOCLDY    17   9  70 N8        30.18R WCI   7
DICKINSON      PTCLDY    24  14  65 N5        30.08S WCI  18
GARRISON         N/A     17   9  70 NW8       30.14S WCI   7
HETTINGER ARPT MOCLDY    24  12  60 NW9       30.11R WCI  14
$$

NDZ004>008-012>016-024-026-027-054-262300-
NORTHEAST NORTH DAKOTA

CITY           SKY/WX    TMP DP  RH WIND       PRES   REMARKS
GRAND FORKS    CLEAR     13   4  67 NW14      30.22R WCI  -2
GRND FRKS AFB  PTCLDY    11   4  74 N10       30.23  WCI  -2
DEVILS LAKE    CLEAR      9   0  66 NW9       30.17S WCI  -5
$$

NDZ022-023-025-028>030-036>039-047>053-262300-
SOUTHEAST NORTH DAKOTA

CITY           SKY/WX    TMP DP  RH WIND       PRES   REMARKS
FARGO          CLOUDY    24  17  74 N15       30.18R WCI  11
JAMESTOWN      CLEAR      9   3  77 NW12      30.19R WCI  -6
$$



USA.gov is the U.S. government's official web portal to all federal, state and local government web resources and services.